Location: Moy Burn
(57.3833°N, 4.0667°W)
Time: 08:50:01
(UTC+00:00)

Cosmos 1500 - Pass Details

Date: 08 August 2020
Orbit: 500 x 518 km, 82.5° (Epoch: 19 September)

Event Time Altitude Azimuth Distance (km) Brightness Sun altitude
Exits shadow 22:24:57 22° 155° (SSE) 1,141 4.3 -12.9°
Maximum altitude 22:26:58 43° 95° (E) 723 3.7 -13.0°
Drops below altitude 10° 22:30:34 10° 23° (NNE) 1,724 6.4 -13.3°
Sets 22:32:45 0° 17° (NNE) 2,615 7.5 -13.4°
